Time,TemperatureF,DewpointF,PressureIn,WindDirection,WindDirectionDegrees,WindSpeedMPH,WindSpeedGustMPH,Humidity,HourlyPrecipIn,Conditions,Clouds,dailyrainin,SolarRadiationWatts/m^2,SoftwareType,DateUTC
2015-07-02 00:02:00,68.2,58.8,29.85,NE,45,2.2,3.5,72,0.00,CLR,,0.00,0.0,WeatherDisplay:10.37,2015-07-02 07:02:00,
2015-07-02 00:07:00,68.0,59.0,29.86,NE,45,1.1,3.5,73,0.00,CLR,,0.00,0.0,WeatherDisplay:10.37,2015-07-02 07:07:00,
2015-07-02 00:12:00,67.7,58.7,29.86,ENE,62,3.0,3.5,73,0.00,CLR,,0.00,0.0,WeatherDisplay:10.37,2015-07-02 07:12:00,
2015-07-02 00:17:00,67.4,58.8,29.86,ESE,111,2.1,4.6,74,0.00,CLR,,0.00,0.0,WeatherDisplay:10.37,2015-07-02 07:17:00,
2015-07-02 00:22:00,67.1,58.5,29.86,SE,124,3.0,3.5,74,0.00,CLR,,0.00,0.0,WeatherDisplay:10.37,2015-07-02 07:22:00,
2015-07-02 00:27:00,67.0,58.8,29.87,ESE,119,2.2,3.5,75,0.00,CLR,,0.00,0.0,WeatherDisplay:10.37,2015-07-02 07:27:00,
2015-07-02 00:32:00,66.9,58.3,29.87,ESE,119,0.0,0.0,74,0.00,CLR,,0.00,0.0,WeatherDisplay:10.37,2015-07-02 07:32:00,
2015-07-02 00:37:00,66.8,58.2,29.87,ESE,119,2.2,3.5,74,0.00,CLR,,0.00,0.0,WeatherDisplay:10.37,2015-07-02 07:37:00,
2015-07-02 00:42:00,66.7,58.5,29.87,ESE,114,1.5,3.5,75,0.00,CLR,,0.00,0.0,WeatherDisplay:10.37,2015-07-02 07:42:00,
2015-07-02 00:47:00,66.6,58.8,29.87,East,96,3.3,4.6,76,0.00,CLR,,0.00,0.0,WeatherDisplay:10.37,2015-07-02 07:47:00,
2015-07-02 00:52:00,66.5,58.7,29.87,ESE,123,4.0,5.0,76,0.00,CLR,,0.00,0.0,WeatherDisplay:10.37,2015-07-02 07:52:00,
2015-07-02 00:57:00,66.3,58.5,29.87,ESE,120,1.8,3.5,76,0.00,CLR,,0.00,0.0,WeatherDisplay:10.37,2015-07-02 07:57:00,
2015-07-02 01:02:00,66.2,58.8,29.87,ESE,118,4.7,5.8,77,0.00,-RA,,0.00,0.0,WeatherDisplay:10.37,2015-07-02 08:02:00,
2015-07-02 01:07:00,66.2,58.8,29.87,ESE,118,0.3,1.2,77,0.00,-RA,,0.00,0.0,WeatherDisplay:10.37,2015-07-02 08:07:00,
2015-07-02 01:12:00,66.2,58.8,29.88,ESE,117,0.3,2.0,77,0.00,-RA,,0.00,0.0,WeatherDisplay:10.37,2015-07-02 08:12:00,
2015-07-02 01:17:00,66.2,58.8,29.88,ESE,114,1.9,3.5,77,0.00,-RA,,0.00,0.0,WeatherDisplay:10.37,2015-07-02 08:17:00,
2015-07-02 01:22:00,66.2,58.8,29.88,ESE,115,1.4,2.3,77,0.00,-RA,,0.00,0.0,WeatherDisplay:10.37,2015-07-02 08:22:00,
2015-07-02 01:27:00,66.1,58.7,29.88,ESE,115,1.2,2.3,77,0.00,-RA,,0.00,0.0,WeatherDisplay:10.37,2015-07-02 08:27:00,
2015-07-02 01:32:00,66.1,59.0,29.88,ESE,114,1.6,3.5,78,0.00,-RA,,0.00,0.0,WeatherDisplay:10.37,2015-07-02 08:32:00,
2015-07-02 01:37:00,66.0,58.6,29.87,ESE,115,3.0,3.5,77,0.00,-RA,,0.00,0.0,WeatherDisplay:10.37,2015-07-02 08:37:00,
2015-07-02 01:42:00,66.0,58.6,29.88,ESE,113,1.5,2.3,77,0.00,-RA,,0.00,0.0,WeatherDisplay:10.37,2015-07-02 08:42:00,
2015-07-02 01:47:00,66.0,58.9,29.87,ESE,114,1.0,2.3,78,0.00,-RA,,0.00,0.0,WeatherDisplay:10.37,2015-07-02 08:47:00,
2015-07-02 01:52:00,65.9,58.8,29.87,SE,124,1.2,2.3,78,0.00,-RA,,0.00,0.0,WeatherDisplay:10.37,2015-07-02 08:52:00,
2015-07-02 01:57:00,65.8,58.4,29.87,SE,126,1.4,2.3,77,0.00,-RA,,0.00,0.0,WeatherDisplay:10.37,2015-07-02 08:57:00,
2015-07-02 02:02:00,65.8,56.5,29.86,SE,130,1.3,2.3,72,0.00,-RA,,0.00,0.0,WeatherDisplay:10.37,2015-07-02 09:02:00,
2015-07-02 02:07:00,66.2,52.3,29.86,SE,130,0.7,2.3,61,0.00,-RA,,0.00,0.0,WeatherDisplay:10.37,2015-07-02 09:07:00,
2015-07-02 02:12:00,66.8,50.1,29.86,SE,130,0.2,1.2,55,0.00,-RA,,0.00,0.0,WeatherDisplay:10.37,2015-07-02 09:12:00,
2015-07-02 02:17:00,67.4,52.1,29.86,SSE,161,0.7,2.0,58,0.00,-RA,,0.00,0.0,WeatherDisplay:10.37,2015-07-02 09:17:00,
2015-07-02 02:22:00,68.0,47.6,29.85,SW,220,4.0,4.6,48,0.00,CLR,,0.00,0.0,WeatherDisplay:10.37,2015-07-02 09:22:00,
2015-07-02 02:27:00,69.0,44.3,29.86,SW,218,0.0,0.0,41,0.00,CLR,,0.00,0.0,WeatherDisplay:10.37,2015-07-02 09:27:00,
2015-07-02 02:32:00,70.1,47.2,29.86,NE,41,5.0,6.9,44,0.00,CLR,,0.00,0.0,WeatherDisplay:10.37,2015-07-02 09:32:00,
2015-07-02 02:37:00,70.5,56.4,29.86,East,82,3.3,4.0,61,0.00,CLR,,0.00,0.0,WeatherDisplay:10.37,2015-07-02 09:37:00,
2015-07-02 02:42:00,69.9,56.3,29.86,ESE,107,2.5,4.0,62,0.00,CLR,,0.00,0.0,WeatherDisplay:10.37,2015-07-02 09:42:00,
2015-07-02 02:47:00,69.1,55.5,29.86,SE,137,3.8,4.6,62,0.00,CLR,,0.00,0.0,WeatherDisplay:10.37,2015-07-02 09:47:00,
2015-07-02 02:52:00,68.6,53.2,29.85,SE,138,1.7,2.3,58,0.00,CLR,,0.00,0.0,WeatherDisplay:10.37,2015-07-02 09:52:00,
2015-07-02 02:57:00,68.6,57.6,29.85,SE,132,0.6,2.3,68,0.00,CLR,,0.00,0.0,WeatherDisplay:10.37,2015-07-02 09:57:00,
2015-07-02 03:02:00,68.5,58.3,29.86,North,10,1.4,3.5,70,0.00,CLR,,0.00,0.0,WeatherDisplay:10.37,2015-07-02 10:02:00,
2015-07-02 03:07:00,68.2,58.8,29.87,NE,43,3.0,5.8,72,0.00,CLR,,0.00,0.0,WeatherDisplay:10.37,2015-07-02 10:07:00,
2015-07-02 03:12:00,67.6,58.6,29.87,ENE,60,0.4,2.3,73,0.00,CLR,,0.00,0.0,WeatherDisplay:10.37,2015-07-02 10:12:00,
2015-07-02 03:17:00,67.1,58.5,29.86,SSE,156,3.7,4.6,74,0.00,CLR,,0.00,0.0,WeatherDisplay:10.37,2015-07-02 10:17:00,
2015-07-02 03:22:00,66.6,58.4,29.86,SSE,147,2.7,3.5,75,0.00,CLR,,0.00,0.0,WeatherDisplay:10.37,2015-07-02 10:22:00,
2015-07-02 03:27:00,66.3,58.5,29.87,NNE,24,4.1,4.6,76,0.00,CLR,,0.00,0.0,WeatherDisplay:10.37,2015-07-02 10:27:00,
2015-07-02 03:32:00,66.2,58.4,29.86,WNW,299,2.6,4.0,76,0.00,CLR,,0.00,0.0,WeatherDisplay:10.37,2015-07-02 10:32:00,
2015-07-02 03:37:00,65.9,58.5,29.86,North,8,3.3,5.8,77,0.00,CLR,,0.00,0.0,WeatherDisplay:10.37,2015-07-02 10:37:00,
2015-07-02 03:42:00,65.8,58.4,29.86,North,2,0.0,1.2,77,0.00,CLR,,0.00,0.0,WeatherDisplay:10.37,2015-07-02 10:42:00,
2015-07-02 03:47:00,65.7,58.3,29.87,NNE,22,3.0,5.8,77,0.00,CLR,,0.00,0.0,WeatherDisplay:10.37,2015-07-02 10:47:00,
2015-07-02 03:52:00,65.5,58.5,29.87,North,8,2.7,3.5,78,0.00,CLR,,0.00,0.0,WeatherDisplay:10.37,2015-07-02 10:52:00,
2015-07-02 03:57:00,65.3,58.3,29.87,SSE,161,0.1,1.2,78,0.00,CLR,,0.00,0.0,WeatherDisplay:10.37,2015-07-02 10:57:00,
2015-07-02 04:02:00,65.1,58.4,29.86,South,170,3.8,4.6,79,0.00,CLR,,0.00,0.0,WeatherDisplay:10.37,2015-07-02 11:02:00,
2015-07-02 04:07:00,64.9,58.2,29.87,North,357,0.3,2.3,79,0.00,CLR,,0.00,0.0,WeatherDisplay:10.37,2015-07-02 11:07:00,
2015-07-02 04:12:00,64.8,58.1,29.86,SW,232,3.1,3.5,79,0.00,CLR,,0.00,0.0,WeatherDisplay:10.37,2015-07-02 11:12:00,
2015-07-02 04:17:00,64.7,58.0,29.85,SW,228,2.0,3.5,79,0.00,CLR,,0.00,0.0,WeatherDisplay:10.37,2015-07-02 11:17:00,
2015-07-02 04:22:00,64.7,58.0,29.86,North,10,3.0,3.5,79,0.00,CLR,,0.00,0.0,WeatherDisplay:10.37,2015-07-02 11:22:00,
2015-07-02 04:27:00,64.7,58.4,29.85,NE,35,3.7,4.0,80,0.00,CLR,,0.00,0.0,WeatherDisplay:10.37,2015-07-02 11:27:00,
2015-07-02 04:32:00,64.6,58.3,29.86,NE,47,0.6,2.0,80,0.00,CLR,,0.00,0.0,WeatherDisplay:10.37,2015-07-02 11:32:00,
2015-07-02 04:37:00,64.5,58.2,29.85,South,176,6.4,8.1,80,0.00,CLR,,0.00,0.0,WeatherDisplay:10.37,2015-07-02 11:37:00,
2015-07-02 04:42:00,64.3,58.3,29.85,ENE,62,2.5,4.0,81,0.00,CLR,,0.00,0.0,WeatherDisplay:10.37,2015-07-02 11:42:00,
2015-07-02 04:47:00,64.2,58.2,29.85,SSE,149,0.4,1.2,81,0.00,CLR,,0.00,0.0,WeatherDisplay:10.37,2015-07-02 11:47:00,
2015-07-02 04:52:00,64.1,58.1,29.86,NNE,17,0.2,1.2,81,0.00,CLR,,0.00,0.0,WeatherDisplay:10.37,2015-07-02 11:52:00,
2015-07-02 04:57:00,64.1,58.1,29.86,NNE,22,0.0,1.2,81,0.00,CLR,,0.00,0.0,WeatherDisplay:10.37,2015-07-02 11:57:00,
2015-07-02 05:02:00,64.0,58.4,29.86,SSE,147,1.5,4.0,82,0.00,CLR,,0.00,0.0,WeatherDisplay:10.37,2015-07-02 12:02:00,
2015-07-02 05:07:00,63.9,58.3,29.87,ENE,59,1.3,3.5,82,0.00,CLR,,0.00,0.0,WeatherDisplay:10.37,2015-07-02 12:07:00,
2015-07-02 05:12:00,63.8,58.2,29.86,ENE,59,0.1,1.2,82,0.00,CLR,,0.00,0.0,WeatherDisplay:10.37,2015-07-02 12:12:00,
2015-07-02 05:17:00,63.8,58.2,29.86,ENE,59,0.3,2.3,82,0.00,CLR,,0.00,0.0,WeatherDisplay:10.37,2015-07-02 12:17:00,
2015-07-02 05:22:00,63.6,58.0,29.87,East,88,2.1,3.5,82,0.00,CLR,,0.00,0.0,WeatherDisplay:10.37,2015-07-02 12:22:00,
2015-07-02 05:27:00,63.6,58.0,29.86,East,85,0.0,0.0,82,0.00,CLR,,0.00,0.0,WeatherDisplay:10.37,2015-07-02 12:27:00,
2015-07-02 05:32:00,63.5,58.2,29.87,ENE,78,0.5,2.3,83,0.00,CLR,,0.00,0.0,WeatherDisplay:10.37,2015-07-02 12:32:00,
2015-07-02 05:37:00,63.4,58.1,29.87,ENE,64,2.3,4.0,83,0.00,CLR,,0.00,0.0,WeatherDisplay:10.37,2015-07-02 12:37:00,
2015-07-02 05:42:00,63.3,58.0,29.88,NE,52,0.8,2.3,83,0.00,CLR,,0.00,0.0,WeatherDisplay:10.37,2015-07-02 12:42:00,
2015-07-02 05:47:00,63.2,57.9,29.89,NNE,27,2.7,5.8,83,0.00,CLR,,0.00,0.0,WeatherDisplay:10.37,2015-07-02 12:47:00,
2015-07-02 05:52:00,63.0,58.1,29.89,ENE,74,1.5,3.5,84,0.00,CLR,,0.00,0.0,WeatherDisplay:10.37,2015-07-02 12:52:00,
2015-07-02 05:57:00,62.7,58.1,29.89,ENE,68,0.3,1.2,85,0.00,CLR,,0.00,0.0,WeatherDisplay:10.37,2015-07-02 12:57:00,
2015-07-02 06:02:00,62.6,58.0,29.89,NNE,24,1.1,3.5,85,0.00,CLR,,0.00,5.0,WeatherDisplay:10.37,2015-07-02 13:02:00,
2015-07-02 06:07:00,62.4,57.8,29.90,NNE,23,2.0,3.5,85,0.00,CLR,,0.00,7.0,WeatherDisplay:10.37,2015-07-02 13:07:00,
2015-07-02 06:12:00,62.2,57.6,29.90,NW,324,2.2,3.5,85,0.00,CLR,,0.00,9.0,WeatherDisplay:10.37,2015-07-02 13:12:00,
2015-07-02 06:17:00,62.1,57.5,29.90,NW,307,1.1,2.3,85,0.00,CLR,,0.00,12.0,WeatherDisplay:10.37,2015-07-02 13:17:00,
2015-07-02 06:22:00,62.0,57.8,29.90,WNW,302,2.3,3.5,86,0.00,CLR,,0.00,19.0,WeatherDisplay:10.37,2015-07-02 13:22:00,
2015-07-02 06:27:00,61.8,57.6,29.90,WNW,294,2.7,3.5,86,0.00,CLR,,0.00,23.0,WeatherDisplay:10.37,2015-07-02 13:27:00,
2015-07-02 06:32:00,61.7,57.5,29.90,West,280,1.7,3.5,86,0.00,CLR,,0.00,25.0,WeatherDisplay:10.37,2015-07-02 13:32:00,
2015-07-02 06:37:00,61.4,57.5,29.89,West,279,1.4,2.3,87,0.00,CLR,,0.00,30.0,WeatherDisplay:10.37,2015-07-02 13:37:00,
2015-07-02 06:42:00,61.4,57.5,29.89,West,280,0.1,1.2,87,0.00,CLR,,0.00,40.0,WeatherDisplay:10.37,2015-07-02 13:42:00,
2015-07-02 06:47:00,61.3,57.7,29.88,West,279,1.7,3.5,88,0.00,CLR,,0.00,49.0,WeatherDisplay:10.37,2015-07-02 13:47:00,
2015-07-02 06:52:00,61.4,57.8,29.88,West,279,0.4,1.2,88,0.00,CLR,,0.00,47.0,WeatherDisplay:10.37,2015-07-02 13:52:00,
2015-07-02 06:57:00,61.5,57.9,29.88,West,278,0.0,1.2,88,0.00,CLR,,0.00,42.0,WeatherDisplay:10.37,2015-07-02 13:57:00,
2015-07-02 07:02:00,61.7,57.8,29.88,West,277,1.6,3.5,87,0.00,CLR,,0.00,37.0,WeatherDisplay:10.37,2015-07-02 14:02:00,
2015-07-02 07:07:00,62.0,58.1,29.89,NE,52,3.6,4.6,87,0.00,CLR,,0.00,35.0,WeatherDisplay:10.37,2015-07-02 14:07:00,
2015-07-02 07:12:00,62.2,58.3,29.89,East,98,1.4,3.5,87,0.00,CLR,,0.00,39.0,WeatherDisplay:10.37,2015-07-02 14:12:00,
2015-07-02 07:17:00,62.4,58.2,29.89,East,87,0.2,1.2,86,0.00,CLR,,0.00,39.0,WeatherDisplay:10.37,2015-07-02 14:17:00,
2015-07-02 07:22:00,62.5,58.3,29.89,East,84,2.2,4.0,86,0.00,CLR,,0.00,33.0,WeatherDisplay:10.37,2015-07-02 14:22:00,
2015-07-02 07:27:00,62.5,58.3,29.90,East,80,2.7,3.5,86,0.00,CLR,,0.00,33.0,WeatherDisplay:10.37,2015-07-02 14:27:00,
2015-07-02 07:32:00,62.4,58.2,29.90,East,84,2.9,4.6,86,0.00,CLR,,0.00,32.0,WeatherDisplay:10.37,2015-07-02 14:32:00,
2015-07-02 07:37:00,62.3,58.4,29.91,ENE,76,3.0,5.8,87,0.00,CLR,,0.00,30.0,WeatherDisplay:10.37,2015-07-02 14:37:00,
2015-07-02 07:42:00,62.2,58.3,29.91,East,80,2.0,3.5,87,0.00,CLR,,0.00,33.0,WeatherDisplay:10.37,2015-07-02 14:42:00,
2015-07-02 07:47:00,62.2,58.3,29.91,ENE,76,0.4,2.3,87,0.00,CLR,,0.00,79.0,WeatherDisplay:10.37,2015-07-02 14:47:00,
2015-07-02 07:52:00,62.5,58.6,29.91,ENE,72,0.7,3.0,87,0.00,CLR,,0.00,156.0,WeatherDisplay:10.37,2015-07-02 14:52:00,
2015-07-02 07:57:00,63.0,59.1,29.92,NE,35,1.4,3.5,87,0.00,CLR,,0.00,105.0,WeatherDisplay:10.37,2015-07-02 14:57:00,
2015-07-02 08:02:00,63.8,59.2,29.92,ESE,122,1.2,3.5,85,0.00,CLR,,0.00,69.0,WeatherDisplay:10.37,2015-07-02 15:02:00,
2015-07-02 08:07:00,64.5,59.6,29.92,East,95,3.0,3.5,84,0.00,CLR,,0.00,54.0,WeatherDisplay:10.37,2015-07-02 15:07:00,
2015-07-02 08:12:00,65.1,59.8,29.92,NE,43,2.7,3.5,83,0.00,CLR,,0.00,62.0,WeatherDisplay:10.37,2015-07-02 15:12:00,
2015-07-02 08:17:00,65.6,60.0,29.92,North,11,0.8,2.3,82,0.00,CLR,,0.00,69.0,WeatherDisplay:10.37,2015-07-02 15:17:00,
2015-07-02 08:22:00,66.0,60.0,29.92,North,10,0.0,0.0,81,0.00,CLR,,0.00,79.0,WeatherDisplay:10.37,2015-07-02 15:22:00,
2015-07-02 08:27:00,66.5,60.5,29.92,North,7,1.0,2.3,81,0.00,CLR,,0.00,79.0,WeatherDisplay:10.37,2015-07-02 15:27:00,
2015-07-02 08:32:00,67.0,60.3,29.92,NE,40,0.6,2.3,79,0.00,CLR,,0.00,113.0,WeatherDisplay:10.37,2015-07-02 15:32:00,
2015-07-02 08:37:00,67.1,60.4,29.92,NNE,33,0.5,2.3,79,0.00,CLR,,0.00,253.0,WeatherDisplay:10.37,2015-07-02 15:37:00,
2015-07-02 08:42:00,67.5,60.4,29.92,NNE,19,2.2,3.5,78,0.00,CLR,,0.00,434.0,WeatherDisplay:10.37,2015-07-02 15:42:00,
2015-07-02 08:47:00,67.8,60.0,29.92,NNE,22,3.3,4.6,76,0.00,CLR,,0.00,199.0,WeatherDisplay:10.37,2015-07-02 15:47:00,
2015-07-02 08:52:00,68.0,59.8,29.92,ENE,62,2.4,3.5,75,0.00,CLR,,0.00,200.0,WeatherDisplay:10.37,2015-07-02 15:52:00,
2015-07-02 08:57:00,68.0,59.8,29.93,NE,42,3.5,4.6,75,0.00,CLR,,0.00,185.0,WeatherDisplay:10.37,2015-07-02 15:57:00,
2015-07-02 09:02:00,67.9,59.7,29.93,NNE,31,2.5,4.6,75,0.00,CLR,,0.00,195.0,WeatherDisplay:10.37,2015-07-02 16:02:00,
2015-07-02 09:07:00,67.8,60.0,29.93,NE,40,2.2,3.5,76,0.00,CLR,,0.00,216.0,WeatherDisplay:10.37,2015-07-02 16:07:00,
2015-07-02 09:12:00,67.8,60.0,29.93,East,97,0.8,2.3,76,0.00,CLR,,0.00,225.0,WeatherDisplay:10.37,2015-07-02 16:12:00,
2015-07-02 09:17:00,67.9,60.4,29.93,East,91,0.3,2.3,77,0.00,CLR,,0.00,218.0,WeatherDisplay:10.37,2015-07-02 16:17:00,
2015-07-02 09:22:00,68.1,60.2,29.93,NE,39,2.1,3.5,76,0.00,CLR,,0.00,225.0,WeatherDisplay:10.37,2015-07-02 16:22:00,
2015-07-02 09:27:00,68.5,60.6,29.93,NE,55,1.8,4.6,76,0.00,CLR,,0.00,243.0,WeatherDisplay:10.37,2015-07-02 16:27:00,
2015-07-02 09:32:00,68.8,60.9,29.93,NE,53,1.2,3.5,76,0.00,CLR,,0.00,251.0,WeatherDisplay:10.37,2015-07-02 16:32:00,
2015-07-02 09:37:00,69.0,61.1,29.93,ESE,109,1.4,3.5,76,0.00,CLR,,0.00,227.0,WeatherDisplay:10.37,2015-07-02 16:37:00,
2015-07-02 09:42:00,69.3,61.0,29.93,ENE,66,0.9,3.0,75,0.00,CLR,,0.00,197.0,WeatherDisplay:10.37,2015-07-02 16:42:00,
2015-07-02 09:47:00,69.9,61.6,29.93,NE,42,1.8,3.5,75,0.00,CLR,,0.00,172.0,WeatherDisplay:10.37,2015-07-02 16:47:00,
2015-07-02 09:52:00,70.4,61.3,29.93,NNW,345,1.3,3.5,73,0.00,CLR,,0.00,176.0,WeatherDisplay:10.37,2015-07-02 16:52:00,
2015-07-02 09:57:00,70.8,61.3,29.94,NNE,28,2.5,3.5,72,0.00,CLR,,0.00,192.0,WeatherDisplay:10.37,2015-07-02 16:57:00,
2015-07-02 10:02:00,71.1,61.6,29.94,ENE,63,1.4,3.5,72,0.00,CLR,,0.00,192.0,WeatherDisplay:10.37,2015-07-02 17:02:00,
2015-07-02 10:07:00,71.7,62.2,29.93,NW,314,0.3,3.5,72,0.00,CLR,,0.00,169.0,WeatherDisplay:10.37,2015-07-02 17:07:00,
2015-07-02 10:12:00,72.6,62.3,29.93,East,94,0.1,2.3,70,0.00,CLR,,0.00,188.0,WeatherDisplay:10.37,2015-07-02 17:12:00,
2015-07-02 10:17:00,73.6,62.8,29.93,WNW,295,1.7,4.0,69,0.00,CLR,,0.00,169.0,WeatherDisplay:10.37,2015-07-02 17:17:00,
2015-07-02 10:22:00,74.6,62.9,29.93,ENE,63,1.1,3.5,67,0.00,CLR,,0.00,197.0,WeatherDisplay:10.37,2015-07-02 17:22:00,
2015-07-02 10:27:00,75.5,62.9,29.92,NNE,33,2.5,3.5,65,0.00,CLR,,0.00,207.0,WeatherDisplay:10.37,2015-07-02 17:27:00,
2015-07-02 10:32:00,76.3,62.8,29.92,NNW,344,2.5,4.6,63,0.00,CLR,,0.00,204.0,WeatherDisplay:10.37,2015-07-02 17:32:00,
2015-07-02 10:37:00,76.6,62.6,29.92,NW,315,1.4,3.5,62,0.00,CLR,,0.00,276.0,WeatherDisplay:10.37,2015-07-02 17:37:00,
2015-07-02 10:42:00,76.9,62.9,29.92,NNW,339,1.2,3.5,62,0.00,CLR,,0.00,292.0,WeatherDisplay:10.37,2015-07-02 17:42:00,
2015-07-02 10:47:00,77.3,63.3,29.92,North,1,0.2,2.3,62,0.00,CLR,,0.00,255.0,WeatherDisplay:10.37,2015-07-02 17:47:00,
2015-07-02 10:52:00,77.9,63.4,29.92,NNW,333,1.6,3.5,61,0.00,CLR,,0.00,220.0,WeatherDisplay:10.37,2015-07-02 17:52:00,
2015-07-02 10:57:00,78.5,62.5,29.92,NE,35,1.5,3.5,58,0.00,CLR,,0.00,359.0,WeatherDisplay:10.37,2015-07-02 17:57:00,
2015-07-02 11:02:00,79.2,63.1,29.92,North,359,0.1,1.2,58,0.00,CLR,,0.00,573.0,WeatherDisplay:10.37,2015-07-02 18:02:00,
2015-07-02 11:07:00,79.9,63.3,29.92,NNW,337,0.8,2.3,57,0.00,CLR,,0.00,779.0,WeatherDisplay:10.37,2015-07-02 18:07:00,
2015-07-02 11:12:00,80.6,63.5,29.92,NNE,24,2.6,4.6,56,0.00,CLR,,0.00,856.0,WeatherDisplay:10.37,2015-07-02 18:12:00,
2015-07-02 11:17:00,81.3,63.6,29.92,NNE,21,0.2,2.0,55,0.00,CLR,,0.00,856.0,WeatherDisplay:10.37,2015-07-02 18:17:00,
2015-07-02 11:22:00,82.1,63.8,29.92,NE,45,1.5,7.0,54,0.00,CLR,,0.00,863.0,WeatherDisplay:10.37,2015-07-02 18:22:00,
2015-07-02 11:27:00,82.5,63.6,29.93,NE,42,2.4,3.5,53,0.00,CLR,,0.00,800.0,WeatherDisplay:10.37,2015-07-02 18:27:00,
2015-07-02 11:32:00,82.6,63.7,29.92,NW,312,1.5,4.6,53,0.00,CLR,,0.00,156.0,WeatherDisplay:10.37,2015-07-02 18:32:00,
2015-07-02 11:37:00,82.9,64.0,29.92,NNW,330,2.2,3.5,53,0.00,CLR,,0.00,244.0,WeatherDisplay:10.37,2015-07-02 18:37:00,
2015-07-02 11:42:00,83.4,63.9,29.92,NNW,334,2.0,3.5,52,0.00,CLR,,0.00,907.0,WeatherDisplay:10.37,2015-07-02 18:42:00,
2015-07-02 11:47:00,83.4,63.4,29.92,NW,321,2.3,4.0,51,0.00,CLR,,0.00,932.0,WeatherDisplay:10.37,2015-07-02 18:47:00,
2015-07-02 11:52:00,83.4,63.9,29.92,NW,322,1.6,4.6,52,0.00,CLR,,0.00,925.0,WeatherDisplay:10.37,2015-07-02 18:52:00,
2015-07-02 11:57:00,83.8,63.7,29.91,NW,319,3.0,4.6,51,0.00,CLR,,0.00,856.0,WeatherDisplay:10.37,2015-07-02 18:57:00,
2015-07-02 12:02:00,84.4,63.7,29.92,NNW,332,2.4,3.5,50,0.00,CLR,,0.00,666.0,WeatherDisplay:10.37,2015-07-02 19:02:00,
2015-07-02 12:07:00,84.6,63.9,29.92,NNW,339,2.3,4.6,50,0.00,CLR,,0.00,687.0,WeatherDisplay:10.37,2015-07-02 19:07:00,
2015-07-02 12:12:00,84.7,64.0,29.92,North,359,1.7,4.0,50,0.00,CLR,,0.00,1063.0,WeatherDisplay:10.37,2015-07-02 19:12:00,
2015-07-02 12:17:00,84.8,64.1,29.92,NNE,22,3.9,4.6,50,0.00,CLR,,0.00,1007.0,WeatherDisplay:10.37,2015-07-02 19:17:00,
2015-07-02 12:22:00,85.1,64.4,29.92,NNE,18,1.9,4.6,50,0.00,CLR,,0.00,1083.0,WeatherDisplay:10.37,2015-07-02 19:22:00,
2015-07-02 12:27:00,85.4,64.6,29.92,North,7,2.3,5.8,50,0.00,CLR,,0.00,1013.0,WeatherDisplay:10.37,2015-07-02 19:27:00,